This demonstration page uses our WeatherBlox Daily Observations layout. Learn more.

Left ArrowRight Arrow

30.00354, -91.81873

Hourly Observations for July 14, 2022

Temp ( °F °C ) Dew Point ( °F °C ) Humidity (%) Winds ( mph kmh ) Pressure ( in mb ) Visibility ( mi km ) Precip ( " mm )
12:53 am 00:53 Clear 78 25.6 75 23.9 90 90 SE 3 6 30.02 1017 10 16 0.00 0.00
1:53 am 01:53 Partly Cloudy 79 26.1 74 23.3 85 85 E 3 6 30.03 1017 10 16 0.00 0.00
2:53 am 02:53 Mostly Clear 77 25 74 23.3 90 90 S 3 6 30.02 1017 10 16 0.00 0.00
3:53 am 03:53 Clear 78 25.6 74 23.3 87 87 SSW 5 7 30.01 1016 10 16 0.00 0.00
4:53 am 04:53 Mostly Cloudy 77 25 75 23.9 94 94 SSE 6 9 30.00 1016 10 16 0.00 0.00
5:08 am 05:08 Mostly Cloudy 77 25 75 23.9 94 94 Calm 30.00 1016 10 16 0.00 0.00
5:53 am 05:53 Mostly Clear 77 25 74 23.3 90 90 Calm 30.01 1016 10 16 0.00 0.00
6:53 am 06:53 Sunny 77 25 75 23.9 94 94 SE 5 7 30.02 1017 10 16 0.00 0.00
7:53 am 07:53 Sunny 80 26.7 75 23.9 85 85 Calm 30.05 1018 10 16 0.00 0.00
8:53 am 08:53 Sunny 83 28.3 76 24.4 79 79 SE 6 9 30.06 1018 10 16 0.00 0.00
9:53 am 09:53 Partly Cloudy 86 30 76 24.4 72 72 S 7 11 30.06 1018 10 16 0.00 0.00
10:53 am 10:53 Mostly Cloudy 85 29.4 75 23.9 72 72 SSE 5 7 30.06 1018 10 16 0.00 0.00
11:53 am 11:53 Cloudy 86 30 75 23.9 70 70 SSW 7 11 30.07 1018 10 16 0.03 0.76
12:51 pm 12:51 Cloudy with Thunderstorms 82 28 73 23 74 74 E 7 11 30.07 1018 9 14 0.01 0.25
12:53 pm 12:53 Cloudy with Thunderstorms 82 27.8 73 22.8 74 74 E 7 11 30.07 1018 8 13 0.01 0.25
1:06 pm 13:06 Cloudy with Nearby Thunderstorms 82 27.8 75 23.9 79 79 NNE 9 15 30.06 1018 9 14 0.01 0.25
1:13 pm 13:13 Mostly Cloudy with Thunderstorms 82 27.8 75 23.9 79 79 NE 9 15 30.06 1018 10 16 0.01 0.25
1:53 pm 13:53 Partly Cloudy with Thunderstorms 82 27.8 73 22.8 74 74 ENE 6 9 30.06 1018 10 16 0.01 0.25
2:00 pm 14:00 Partly Cloudy with Nearby Thunderstorms 81 27.2 73 22.8 77 77 E 5 7 30.06 1018 10 16 0.00 0.00
2:41 pm 14:41 Mostly Cloudy 83 28.3 73 22.8 72 72 ENE 3 6 30.08 1019 10 16 0.00 0.00
2:51 pm 14:51 Mostly Cloudy with Nearby Thunderstorms 81 27 73 23 79 79 ENE 14 22 30.07 1018 7 11 0.00 0.00
2:53 pm 14:53 Mostly Cloudy with Nearby Thunderstorms 79 26.1 74 23.3 85 85 ENE 12 19 30.07 1018 6 10 0.01 0.25
3:06 pm 15:06 Cloudy with Thunderstorms 77 25 72 22.2 85 85 ENE 9 15 30.08 1019 10 16 0.00 0.00
3:16 pm 15:16 Cloudy with Thunderstorms 78 25.6 73 22.8 85 85 ENE 7 11 30.08 1019 10 16 0.00 0.00
3:28 pm 15:28 Cloudy with Thunderstorms 78 25.6 73 22.8 85 85 ENE 3 6 30.08 1019 10 16 0.00 0.00
3:31 pm 15:31 Mostly Cloudy with Light Rain 78 25.6 73 22.8 85 85 NNE 3 6 30.07 1018 10 16 0.00 0.00
3:40 pm 15:40 Mostly Cloudy with Light Rain 78 25.6 73 22.8 85 85 Calm 30.07 1018 10 16 0.00 0.00
3:53 pm 15:53 Partly Cloudy with Light Rain 79 26.1 73 22.8 82 82 ENE 6 9 30.06 1018 10 16 0.00 0.00
4:53 pm 16:53 Mostly Sunny 79 26.1 72 22.2 79 79 NE 5 7 30.06 1018 10 16 0.00 0.00
5:53 pm 17:53 Sunny 79 26.1 74 23.3 85 85 SSE 5 7 30.03 1017 10 16 0.00 0.00
6:53 pm 18:53 Sunny 81 27.2 73 22.8 77 77 ENE 5 7 30.03 1017 10 16 0.00 0.00
7:53 pm 19:53 Sunny 78 25.6 74 23.3 87 87 E 8 13 30.04 1017 10 16 0.00 0.00
8:53 pm 20:53 Clear 77 25 74 23.3 90 90 E 7 11 30.05 1018 10 16 0.00 0.00
9:53 pm 21:53 Clear 77 25 74 23.3 90 90 E 6 9 30.07 1018 10 16 0.00 0.00
10:53 pm 22:53 Clear 78 25.6 75 23.9 90 90 E 3 6 30.07 1018 10 16 0.00 0.00
11:53 pm 23:53 Mostly Clear 78 25.6 75 23.9 90 90 SE 5 7 30.07 1018 10 16 0.00 0.00

Powered by AerisWeather